{"data":{"norad_id":67324,"intl_designator":"2026-002V","name":"STARLINK-36471","alt_names":[],"object_type":"PAYLOAD","status":"ACTIVE","operator":null,"country":"US","launch_date":"2026-01-04","launch_site_code":"AFETR","launch_vehicle":null,"mission":null,"orbit_class":"UNKNOWN","rcs_meters":null,"size_class":null,"mass_kg":null,"dimensions":null,"purposes":["comms"],"wikipedia_slug":null,"has_3d_model":false,"image_url":null,"decayed_at":null,"tle_current":{"epoch":"2026-05-25T00:19:22.941408Z","epoch_age_seconds":64071,"freshness":"FRESH","line1":"1 67324U 26002V   26145.01345997  .00018352  00000+0  67467-3 0  9999","line2":"2 67324  43.0018 254.0567 0001060 277.8040  82.2691 15.27584920 22751","mean_motion":15.2758492,"eccentricity":0.000106,"inclination_deg":43.0018,"raan_deg":254.0567,"arg_perigee_deg":277.804,"mean_anomaly_deg":82.2691,"bstar":0.00067467,"rev_number":2275,"period_min":94.266445102116,"perigee_km":482.30707966467,"apogee_km":483.7616479938,"semimajor_km":6861.1713638292,"source":"CELESTRAK","updated_at":"2026-05-25T13:38:21.519093Z"}}}